Regional Weather Roundup
Issued by NWS

Home | Current Version | Previous Version | Text Only | Print | Product List | Glossary Off
Versions: 1 2 3 4 5 6 7 8 9 10 11 12 13 14 15 16 17 18 19 20 21 22 23 24 25 26 27 28 29 30 31 32 33 34 35 36 37 38 39 40 41 42 43 44 45 46 47 48 49 50

000
ASUS45 KBOU 040507
RWRCO

WEATHER ROUNDUP FOR COLORADO
NATIONAL WEATHER SERVICE DENVER/BOULDER CO
1100 PM MDT MON AUG 03 2015

NOTE: "FAIR" INDICATES FEW OR NO CLOUDS BELOW 12000 FEET WITH NO
SIGNIFICANT WEATHER AND/OR OBSTRUCTIONS TO VISIBILITY.

COZ001>005-013-030-031-040600-
...NORTHWEST COLORADO...

CITY           SKY/WX    TMP DP  RH WIND       PRES   REMARKS
CRAIG          MOCLDY    58  54  86 NW3       30.18R
HAYDEN         MOCLDY    57  50  77 E6        30.19R
MEEKER         CLEAR     57  51  80 CALM      30.19R
MOUNT WERNER   NOT AVBL
STEAMBOAT SPGS   N/A     55  53  94 S5        30.20S
WALDEN         CLOUDY    50  45  81 SE3       30.27F
$$

COZ006>008-011-040600-
...WEST CENTRAL VALLEYS...

CITY           SKY/WX    TMP DP  RH WIND       PRES   REMARKS
GRAND JUNCTION MOCLDY    72  48  42 NW8       30.07R
MONTROSE       PTCLDY    65  50  58 SE7       30.18R
EAGLE          PTCLDY    59  48  67 E7        30.21R
RIFLE          PTCLDY    65  55  70 CALM      30.12R
DELTA          PTCLDY    72  54  52 NE6       30.12R
NUCLA          PTCLDY    63  50  63 SE7       30.22
$$

COZ017>023-064>068-040600-
...SOUTHWEST COLORADO...

CITY           SKY/WX    TMP DP  RH WIND       PRES   REMARKS
DURANGO        CLEAR     64  39  39 NW3       30.24R
CORTEZ         CLEAR     62  45  53 CALM      30.17S
PAGOSA SPRINGS CLEAR     54  50  86 CALM      30.32R
TELLURIDE      PTCLDY    52  41  67 SE5       30.45
WOLF CREEK PAS NOT AVBL
$$

COZ009-010-012-014-032>034-037-058>063-040600-
...CENTRAL COLORADO...

CITY           SKY/WX    TMP DP  RH WIND       PRES   REMARKS
ASPEN          PTCLDY    52  46  80 SW7       30.29R
BUENA VISTA    PTCLDY    56  45  65 W5        30.30R
COPPER MTN     CLEAR     50  32  50 W23G31    30.56F
BERTHOUD PASS  FAIR      41  30  65 W22G35    30.59S
COTTONWOOD PAS PTCLDY    59  41  51 NW5       30.42S
GUNNISON       PTCLDY    57  46  67 N3        30.33R
KREMMLING      PTCLDY    54  43  66 CALM      30.25F
LEADVILLE      PTCLDY    50  38  63 NE7       30.41F
MONARCH PASS   CLEAR     45  37  76 W26       30.67R
SALIDA         PTCLDY    58  48  70 CALM      30.35R
SUNLIGHT       PTCLDY    48  45  87 CALM      30.49R
WILKERSON PASS NOT AVBL
$$

COZ069>075-040600-
...SAN LUIS VALLEY/SANGRE DE CRISTO MOUNTAINS...

CITY           SKY/WX    TMP DP  RH WIND       PRES   REMARKS
ALAMOSA        CLEAR     54  50  86 CALM      30.27R
LA VETA PASS   MOCLDY    50  46  87 MISG      30.47R
SAGUACHE       CLEAR     55  46  71 N8        30.30S
$$

COZ035-036-038>040-040600-
...NORTHERN COLORADO FRONT RANGE...

CITY           SKY/WX    TMP DP  RH WIND       PRES   REMARKS
DENVER INTL AP MOCLDY    62  51  67 S12       30.07F
DMNS CITY PARK   N/A     66  54  64 E10       30.07S
AURORA         MOCLDY    65  54  66 S12       30.10F
FRONT RANGE AP NOT AVBL
ERIE MUNI ARPT MOCLDY    68  54  60 SW5       30.06F
BOULDER MUN AP MOCLDY    70  52  52 S3        30.07S
CENTENNIAL     MOCLDY    62  53  72 S8        30.11F
BROOMFIELD     NOT AVBL
FORT COLLINS   CLOUDY    63  54  72 N14       30.09R
LONGMONT       CLOUDY    72  54  53 N3        30.09R
$$

COZ041-046-047-076>085-087-088-040600-
...PIKES PEAK/PALMER DIVIDE AND SOUTHERN FOOTHILLS...

CITY           SKY/WX    TMP DP  RH WIND       PRES   REMARKS
COLO. SPRINGS  CLOUDY    63  56  78 CALM      30.18S
A. F. ACADEMY  MOCLDY    57  56  99 N5        30.19R
ELLICOTT       CLOUDY   N/A N/A N/A NW9G17    30.16R
FALCON         CLOUDY    59  56  91 W7        30.22S
FORT CARSON    MOCLDY    63  56  79 W6        30.15R
LIMON          CLOUDY    56  55  97 CALM      30.12S
MONUMENT HILL  CLOUDY    55  52  88 S9        30.21S
TRINIDAD       MOCLDY    62  60  93 NW9       30.16R
$$

COZ042>045-048>051-090-091-040600-
...NORTHEAST COLORADO...

CITY           SKY/WX    TMP DP  RH WIND       PRES   REMARKS
GREELEY ARPT   MOCLDY    64  52  63 N5        30.07R
AKRON          PTCLDY    62  47  57 SW7       30.06F
BURLINGTON     CLOUDY    67  59  75 S7        30.05R
WRAY           PTCLDY    63  53  69 W3        30.01S
STERLING       PTCLDY    66  52  59 SW3       30.01F
HOLYOKE        PTCLDY    66  54  63 W6        30.01S
FORT MORGAN    PTCLDY    65  49  56 CALM      30.06S
$$

COZ086-089-092>099-040600-
...SOUTHEAST COLORADO...

CITY           SKY/WX    TMP DP  RH WIND       PRES   REMARKS
PUEBLO         CLOUDY    61  57  87 SW7       30.10F
LA JUNTA       TSTM      61  56  83 NW21G58   30.13R VSB 3/4
LAMAR          MOCLDY    65  63  93 CALM      30.02R
SPRINGFIELD      N/A     67  63  87 SW6       30.07R
$$


USA.gov is the U.S. government's official web portal to all federal, state and local government web resources and services.